| time (UTC) | temp F | wind direction | speed MPH | gust MPH | rain 1hr in | rain 24hr in | rain mn in | humidity % | barometer mb |
| 20260504100142 | 39 | 107 | 0.0 | 0.0 | 0.00 | 0.00 | 0.00 | 80 | 1015.8 |
| 20260504090104 | 40 | 122 | 0.0 | 1.0 | 0.00 | 0.00 | 0.00 | 80 | 1015.7 |
| 20260504081535 | 41 | 121 | 0.0 | 0.0 | 0.00 | 0.00 | 0.00 | 77 | 1015.7 |
| 20260504081030 | 41 | 119 | 0.0 | 0.0 | 0.00 | 0.00 | 0.00 | 76 | 1015.6 |
| 20260504080527 | 42 | 118 | 0.0 | 0.0 | 0.00 | 0.00 | 0.00 | 76 | 1015.6 |
| 20260504050334 | 40 | 125 | 0.0 | 0.0 | 0.00 | 0.00 | 0.00 | 80 | 1015.1 |
| 20260504045831 | 39 | 124 | 0.0 | 0.0 | 0.00 | 0.00 | 0.00 | 79 | 1015.1 |
| 20260504045326 | 39 | 113 | 0.0 | 0.0 | 0.00 | 0.00 | 0.00 | 79 | 1015.1 |
| 20260504044823 | 40 | 108 | 0.0 | 0.0 | 0.00 | 0.00 | 0.00 | 79 | 1015.1 |
| 20260504044320 | 40 | 110 | 0.0 | 0.0 | 0.00 | 0.00 | 0.00 | 78 | 1015.1 |
| 20260504043817 | 40 | 95 | 1.0 | 1.0 | 0.00 | 0.00 | 0.00 | 78 | 1015.1 |
| 20260504043314 | 40 | 75 | 2.0 | 2.0 | 0.00 | 0.00 | 0.00 | 78 | 1015.3 |
| 20260504042812 | 40 | 114 | 1.0 | 1.0 | 0.00 | 0.00 | 0.00 | 78 | 1015.2 |
| 20260504042308 | 40 | 101 | 0.0 | 0.0 | 0.00 | 0.00 | 0.00 | 77 | 1015.2 |
| 20260504041805 | 40 | 99 | 0.0 | 0.0 | 0.00 | 0.00 | 0.00 | 76 | 1015.1 |
| 20260504041300 | 40 | 99 | 0.0 | 0.0 | 0.00 | 0.00 | 0.00 | 76 | 1015.2 |
| 20260504040757 | 40 | 93 | 1.0 | 1.0 | 0.00 | 0.00 | 0.00 | 76 | 1015.0 |
| 20260504040254 | 40 | 101 | 0.0 | 0.0 | 0.00 | 0.00 | 0.00 | 75 | 1015.1 |
| 20260504035750 | 41 | 100 | 0.0 | 0.0 | 0.00 | 0.00 | 0.00 | 75 | 1015.0 |
| 20260504035247 | 41 | 101 | 0.0 | 0.0 | 0.00 | 0.00 | 0.00 | 74 | 1014.8 |
| 20260504034745 | 41 | 94 | 0.0 | 1.0 | 0.00 | 0.00 | 0.00 | 73 | 1015.0 |
| 20260504034242 | 41 | 98 | 0.0 | 0.0 | 0.00 | 0.00 | 0.00 | 73 | 1015.1 |
| 20260504033740 | 42 | 96 | 0.0 | 0.0 | 0.00 | 0.00 | 0.00 | 72 | 1014.9 |
| 20260504033237 | 42 | 85 | 1.0 | 1.0 | 0.00 | 0.00 | 0.00 | 72 | 1015.0 |
| 20260504032734 | 42 | 104 | 0.0 | 0.0 | 0.00 | 0.00 | 0.00 | 71 | 1014.9 |
| 20260504032231 | 42 | 105 | 0.0 | 0.0 | 0.00 | 0.00 | 0.00 | 71 | 1014.9 |
| 20260504031727 | 43 | 113 | 0.0 | 0.0 | 0.00 | 0.00 | 0.00 | 71 | 1014.8 |
| 20260504031225 | 43 | 112 | 0.0 | 0.0 | 0.00 | 0.00 | 0.00 | 70 | 1015.0 |
| 20260504030720 | 43 | 105 | 0.0 | 0.0 | 0.00 | 0.00 | 0.00 | 70 | 1014.9 |
| 20260504030218 | 42 | 117 | 0.0 | 0.0 | 0.00 | 0.00 | 0.00 | 69 | 1014.8 |
| 20260504025714 | 42 | 116 | 0.0 | 0.0 | 0.00 | 0.00 | 0.00 | 69 | 1014.8 |
| 20260504025211 | 42 | 102 | 0.0 | 0.0 | 0.00 | 0.00 | 0.00 | 69 | 1014.9 |
| 20260504024708 | 43 | 107 | 0.0 | 0.0 | 0.00 | 0.00 | 0.00 | 68 | 1014.8 |
| 20260504024205 | 43 | 107 | 0.0 | 0.0 | 0.00 | 0.00 | 0.00 | 68 | 1014.8 |
| 20260504023702 | 43 | 108 | 0.0 | 0.0 | 0.00 | 0.00 | 0.00 | 67 | 1014.7 |
| 20260504023157 | 43 | 105 | 0.0 | 0.0 | 0.00 | 0.00 | 0.00 | 67 | 1014.9 |
| 20260504022654 | 43 | 97 | 1.0 | 1.0 | 0.00 | 0.00 | 0.00 | 67 | 1014.7 |
| 20260504022150 | 44 | 103 | 0.0 | 1.0 | 0.00 | 0.00 | 0.00 | 66 | 1014.7 |
| 20260504021648 | 44 | 99 | 1.0 | 1.0 | 0.00 | 0.00 | 0.00 | 65 | 1014.7 |
| 20260504021145 | 45 | 106 | 0.0 | 0.0 | 0.00 | 0.00 | 0.00 | 64 | 1014.8 |
| 20260504020642 | 45 | 106 | 0.0 | 0.0 | 0.00 | 0.00 | 0.00 | 63 | 1014.6 |
| 20260504020137 | 46 | 106 | 0.0 | 0.0 | 0.00 | 0.00 | 0.00 | 62 | 1014.7 |
| 20260504015634 | 46 | 116 | 0.0 | 0.0 | 0.00 | 0.00 | 0.00 | 61 | 1014.7 |
| 20260504015131 | 47 | 126 | 0.0 | 0.0 | 0.00 | 0.00 | 0.00 | 60 | 1014.7 |
| 20260504014626 | 47 | 122 | 0.0 | 0.0 | 0.00 | 0.00 | 0.00 | 60 | 1014.8 |
| 20260504014124 | 47 | 120 | 0.0 | 0.0 | 0.00 | 0.00 | 0.00 | 59 | 1014.8 |
| 20260504013621 | 47 | 116 | 0.0 | 0.0 | 0.00 | 0.00 | 0.00 | 58 | 1014.6 |
| 20260504013118 | 47 | 118 | 0.0 | 0.0 | 0.00 | 0.00 | 0.00 | 57 | 1014.7 |
| 20260504012615 | 48 | 105 | 0.0 | 0.0 | 0.00 | 0.00 | 0.00 | 56 | 1014.7 |
| 20260504012113 | 48 | 99 | 0.0 | 0.0 | 0.00 | 0.00 | 0.00 | 56 | 1014.5 |
| 20260504011610 | 48 | 105 | 0.0 | 0.0 | 0.00 | 0.00 | 0.00 | 54 | 1014.8 |
| 20260504011106 | 48 | 101 | 0.0 | 0.0 | 0.00 | 0.00 | 0.00 | 53 | 1014.5 |
| 20260504010602 | 49 | 100 | 0.0 | 0.0 | 0.00 | 0.00 | 0.00 | 51 | 1014.5 |
| 20260504010058 | 49 | 95 | 1.0 | 1.0 | 0.00 | 0.00 | 0.00 | 51 | 1014.4 |
| 20260504005555 | 49 | 97 | 1.0 | 1.0 | 0.00 | 0.00 | 0.00 | 49 | 1014.3 |
| 20260504005052 | 50 | 102 | 0.0 | 0.0 | 0.00 | 0.00 | 0.00 | 46 | 1014.3 |
| 20260504004550 | 51 | 106 | 0.0 | 0.0 | 0.00 | 0.00 | 0.00 | 45 | 1014.2 |
| 20260504004047 | 51 | 102 | 0.0 | 0.0 | 0.00 | 0.00 | 0.00 | 44 | 1014.4 |
| 20260504003543 | 52 | 99 | 0.0 | 1.0 | 0.00 | 0.00 | 0.00 | 43 | 1014.3 |
| 20260504003040 | 53 | 103 | 0.0 | 0.0 | 0.00 | 0.00 | 0.00 | 42 | 1014.1 |
| 20260504002537 | 53 | 102 | 0.0 | 0.0 | 0.00 | 0.00 | 0.00 | 43 | 1013.9 |
| 20260504002034 | 54 | 106 | 0.0 | 0.0 | 0.00 | 0.00 | 0.00 | 42 | 1013.9 |
| 20260504001532 | 55 | 105 | 0.0 | 0.0 | 0.00 | 0.00 | 0.00 | 39 | 1013.7 |
| 20260504001027 | 56 | 143 | 1.0 | 1.0 | 0.00 | 0.00 | 0.00 | 36 | 1013.8 |
| 20260504000525 | 56 | 87 | 1.0 | 2.0 | 0.00 | 0.00 | 0.00 | 37 | 1013.6 |
| 20260504000022 | 56 | 111 | 1.0 | 1.0 | 0.00 | 0.00 | 0.00 | 36 | 1013.7 |
| 20260503235521 | 57 | 107 | 1.0 | 2.0 | 0.00 | 0.00 | 0.00 | 36 | 1013.5 |
| 20260503235017 | 57 | 303 | 4.0 | 6.0 | 0.00 | 0.00 | 0.00 | 35 | 1013.5 |
| 20260503234515 | 57 | 236 | 5.0 | 6.0 | 0.00 | 0.00 | 0.00 | 35 | 1013.4 |
| 20260503234013 | 57 | 60 | 1.0 | 1.0 | 0.00 | 0.00 | 0.00 | 34 | 1013.5 |
| 20260503233509 | 57 | 104 | 0.0 | 0.0 | 0.00 | 0.00 | 0.00 | 34 | 1013.5 |
| 20260503233005 | 57 | 100 | 2.0 | 2.0 | 0.00 | 0.00 | 0.00 | 33 | 1013.5 |
| 20260503232502 | 57 | 63 | 2.0 | 2.0 | 0.00 | 0.00 | 0.00 | 33 | 1013.4 |
| 20260503232000 | 57 | 253 | 6.0 | 8.0 | 0.00 | 0.00 | 0.00 | 32 | 1013.3 |
| 20260503231457 | 57 | 80 | 3.0 | 3.0 | 0.00 | 0.00 | 0.00 | 32 | 1013.2 |
| 20260503230954 | 58 | 50 | 2.0 | 2.0 | 0.00 | 0.00 | 0.00 | 31 | 1013.1 |
| 20260503230450 | 58 | 298 | 3.0 | 3.0 | 0.00 | 0.00 | 0.00 | 31 | 1013.2 |
| 20260503225948 | 58 | 123 | 0.0 | 0.0 | 0.00 | 0.00 | 0.00 | 30 | 1013.1 |
| 20260503225444 | 58 | 134 | 0.0 | 1.0 | 0.00 | 0.00 | 0.00 | 30 | 1013.1 |
| 20260503224940 | 58 | 79 | 1.0 | 1.0 | 0.00 | 0.00 | 0.00 | 31 | 1013.0 |
| 20260503224437 | 58 | 295 | 2.0 | 2.0 | 0.00 | 0.00 | 0.00 | 30 | 1012.9 |
| 20260503223935 | 59 | 274 | 2.0 | 3.0 | 0.00 | 0.00 | 0.00 | 29 | 1013.0 |
| 20260503223433 | 60 | 300 | 2.0 | 2.0 | 0.00 | 0.00 | 0.00 | 30 | 1012.9 |
| 20260503222928 | 59 | 18 | 3.0 | 3.0 | 0.00 | 0.00 | 0.00 | 29 | 1012.8 |
| 20260503222427 | 59 | 281 | 3.0 | 3.0 | 0.00 | 0.00 | 0.00 | 30 | 1012.8 |
| 20260503221925 | 59 | 107 | 0.0 | 1.0 | 0.00 | 0.00 | 0.00 | 30 | 1012.7 |
| 20260503221423 | 60 | 98 | 0.0 | 1.0 | 0.00 | 0.00 | 0.00 | 30 | 1012.8 |
| 20260503220919 | 60 | 107 | 1.0 | 1.0 | 0.00 | 0.00 | 0.00 | 28 | 1012.8 |
| 20260503220415 | 61 | 57 | 0.0 | 1.0 | 0.00 | 0.00 | 0.00 | 30 | 1012.9 |
| 20260503215913 | 61 | 95 | 2.0 | 3.0 | 0.00 | 0.00 | 0.00 | 28 | 1012.8 |
| 20260503215410 | 60 | 258 | 4.0 | 4.0 | 0.00 | 0.00 | 0.00 | 27 | 1012.8 |
| 20260503214907 | 60 | 210 | 4.0 | 6.0 | 0.00 | 0.00 | 0.00 | 27 | 1012.8 |
| 20260503214404 | 60 | 270 | 4.0 | 4.0 | 0.00 | 0.00 | 0.00 | 28 | 1012.8 |
| 20260503213902 | 60 | 329 | 3.0 | 3.0 | 0.00 | 0.00 | 0.00 | 29 | 1012.7 |
| 20260503213400 | 60 | 113 | 1.0 | 1.0 | 0.00 | 0.00 | 0.00 | 31 | 1012.5 |
| 20260503212856 | 61 | 264 | 5.0 | 6.0 | 0.00 | 0.00 | 0.00 | 31 | 1012.6 |
| 20260503212354 | 60 | 85 | 0.0 | 1.0 | 0.00 | 0.00 | 0.00 | 31 | 1012.5 |
| 20260503211851 | 60 | 79 | 2.0 | 4.0 | 0.00 | 0.00 | 0.00 | 29 | 1012.4 |
| 20260503211347 | 60 | 217 | 5.0 | 6.0 | 0.00 | 0.00 | 0.00 | 30 | 1012.7 |
| 20260503210842 | 61 | 174 | 1.0 | 2.0 | 0.00 | 0.00 | 0.00 | 31 | 1012.6 |
| 20260503210340 | 61 | 145 | 2.0 | 2.0 | 0.00 | 0.00 | 0.00 | 30 | 1012.7 |
| 20260503205835 | 60 | 286 | 6.0 | 8.0 | 0.00 | 0.00 | 0.00 | 30 | 1012.7 |
| 20260503205332 | 61 | 247 | 3.0 | 4.0 | 0.00 | 0.00 | 0.00 | 30 | 1012.7 |
| 20260503204828 | 61 | 138 | 1.0 | 1.0 | 0.00 | 0.00 | 0.00 | 30 | 1012.5 |
| 20260503204326 | 60 | 169 | 2.0 | 3.0 | 0.00 | 0.00 | 0.00 | 31 | 1012.7 |
| 20260503203823 | 59 | 276 | 4.0 | 4.0 | 0.00 | 0.00 | 0.00 | 32 | 1012.8 |
| 20260503203320 | 60 | 299 | 3.0 | 4.0 | 0.00 | 0.00 | 0.00 | 31 | 1012.7 |
| 20260503202817 | 60 | 306 | 5.0 | 7.0 | 0.00 | 0.00 | 0.00 | 32 | 1012.8 |
| 20260503202315 | 59 | 109 | 2.0 | 3.0 | 0.00 | 0.00 | 0.00 | 32 | 1012.8 |
| 20260503201813 | 58 | 49 | 2.0 | 3.0 | 0.00 | 0.00 | 0.00 | 32 | 1012.9 |
| 20260503201310 | 59 | 109 | 1.0 | 1.0 | 0.00 | 0.00 | 0.00 | 33 | 1012.9 |
| 20260503200808 | 58 | 150 | 2.0 | 2.0 | 0.00 | 0.00 | 0.00 | 32 | 1013.0 |
| 20260503200303 | 58 | 124 | 3.0 | 4.0 | 0.00 | 0.00 | 0.00 | 33 | 1013.1 |
| 20260503195801 | 57 | 164 | 2.0 | 2.0 | 0.00 | 0.00 | 0.00 | 33 | 1013.2 |
| 20260503195257 | 60 | 34 | 2.0 | 3.0 | 0.00 | 0.00 | 0.00 | 33 | 1013.1 |
| 20260503194754 | 59 | 123 | 2.0 | 3.0 | 0.00 | 0.00 | 0.00 | 33 | 1013.3 |
| 20260503194250 | 58 | 35 | 2.0 | 3.0 | 0.00 | 0.00 | 0.00 | 33 | 1013.2 |
| 20260503193741 | 59 | 81 | 0.0 | 1.0 | 0.00 | 0.00 | 0.00 | 34 | 1013.4 |
| 20260503193237 | 57 | 270 | 5.0 | 7.0 | 0.00 | 0.00 | 0.00 | 35 | 1013.4 |
| 20260503192733 | 58 | 338 | 3.0 | 3.0 | 0.00 | 0.00 | 0.00 | 35 | 1013.3 |
| 20260503192228 | 56 | 114 | 0.0 | 0.0 | 0.00 | 0.00 | 0.00 | 36 | 1013.3 |
| 20260503191726 | 55 | 95 | 1.0 | 2.0 | 0.00 | 0.00 | 0.00 | 36 | 1013.5 |
| 20260503191223 | 55 | 84 | 1.0 | 1.0 | 0.00 | 0.00 | 0.00 | 36 | 1013.7 |
| 20260503190720 | 56 | 183 | 1.0 | 2.0 | 0.00 | 0.00 | 0.00 | 37 | 1013.8 |
| 20260503190216 | 55 | 79 | 1.0 | 1.0 | 0.00 | 0.00 | 0.00 | 38 | 1013.7 |
| 20260503185714 | 55 | 148 | 2.0 | 2.0 | 0.00 | 0.00 | 0.00 | 36 | 1013.6 |
| 20260503185209 | 54 | 69 | 1.0 | 2.0 | 0.00 | 0.00 | 0.00 | 36 | 1013.8 |
| 20260503184704 | 56 | 270 | 3.0 | 3.0 | 0.00 | 0.00 | 0.00 | 36 | 1014.0 |
| 20260503184200 | 55 | 5 | 3.0 | 4.0 | 0.00 | 0.00 | 0.00 | 37 | 1013.9 |
| 20260503183656 | 55 | 27 | 3.0 | 3.0 | 0.00 | 0.00 | 0.00 | 36 | 1014.0 |
| 20260503183154 | 55 | 340 | 4.0 | 4.0 | 0.00 | 0.00 | 0.00 | 37 | 1013.9 |
| 20260503182652 | 55 | 114 | 1.0 | 1.0 | 0.00 | 0.00 | 0.00 | 37 | 1014.2 |
| 20260503182150 | 55 | 264 | 5.0 | 7.0 | 0.00 | 0.00 | 0.00 | 37 | 1014.2 |
| 20260503181647 | 54 | 289 | 5.0 | 6.0 | 0.00 | 0.00 | 0.00 | 37 | 1014.1 |
| 20260503181144 | 56 | 15 | 2.0 | 3.0 | 0.00 | 0.00 | 0.00 | 38 | 1014.2 |
| 20260503180640 | 53 | 174 | 1.0 | 2.0 | 0.00 | 0.00 | 0.00 | 39 | 1014.0 |
| 20260503180138 | 53 | 95 | 1.0 | 1.0 | 0.00 | 0.00 | 0.00 | 40 | 1014.1 |
| 20260503175635 | 52 | 81 | 2.0 | 2.0 | 0.00 | 0.00 | 0.00 | 39 | 1014.3 |
| 20260503175132 | 53 | 119 | 1.0 | 1.0 | 0.00 | 0.00 | 0.00 | 40 | 1014.4 |
| 20260503174628 | 52 | 67 | 2.0 | 2.0 | 0.00 | 0.00 | 0.00 | 39 | 1014.2 |
| 20260503174125 | 53 | 271 | 2.0 | 3.0 | 0.00 | 0.00 | 0.00 | 40 | 1014.3 |
| 20260503173620 | 53 | 101 | 1.0 | 1.0 | 0.00 | 0.00 | 0.00 | 38 | 1014.4 |
| 20260503173117 | 54 | 110 | 1.0 | 1.0 | 0.00 | 0.00 | 0.00 | 39 | 1014.5 |
| 20260503172614 | 53 | 76 | 1.0 | 1.0 | 0.00 | 0.00 | 0.00 | 39 | 1014.4 |
| 20260503172111 | 53 | 218 | 7.0 | 9.0 | 0.00 | 0.00 | 0.00 | 40 | 1014.4 |
| 20260503171608 | 52 | 113 | 2.0 | 3.0 | 0.00 | 0.00 | 0.00 | 39 | 1014.5 |
| 20260503171105 | 52 | 123 | 0.0 | 1.0 | 0.00 | 0.00 | 0.00 | 39 | 1014.2 |
| 20260503170601 | 52 | 221 | 3.0 | 4.0 | 0.00 | 0.00 | 0.00 | 38 | 1014.5 |
| 20260503150954 | 51 | 290 | 3.0 | 4.0 | 0.00 | 0.00 | 0.00 | 44 | 1014.5 |
| 20260503150450 | 51 | 28 | 3.0 | 3.0 | 0.00 | 0.00 | 0.00 | 44 | 1014.5 |
| 20260503131338 | 48 | 152 | 1.0 | 2.0 | 0.00 | 0.00 | 0.00 | 60 | 1015.1 |
| 20260503130835 | 47 | 107 | 2.0 | 3.0 | 0.00 | 0.00 | 0.00 | 61 | 1015.2 |
| 20260503130333 | 46 | 307 | 1.0 | 2.0 | 0.00 | 0.00 | 0.00 | 62 | 1014.9 |
| 20260503110726 | 38 | 100 | 0.0 | 0.0 | 0.00 | 0.00 | 0.00 | 89 | 1014.9 |
| 20260503110223 | 37 | 100 | 0.0 | 0.0 | 0.00 | 0.00 | 0.00 | 89 | 1014.7 |